This is the latest recevied weather packets stored in our database for station/object N1IJV-10. If no packets are shown the sender has not sent any weather packets the latest 10 day(s).
| Time | Temp. | Humidity | Pressure | Rain* | Wind** | Luminosity | Snow |
|---|---|---|---|---|---|---|---|
| 1777740780 | 12.22° C | 51% | 1018.7 hPa | 0 mm | - | 684 W/m² | - |
| 1777740477 | 11.67° C | 44% | 1018.9 hPa | 0 mm | - | 772 W/m² | - |
| 1777740175 | 11.67° C | 51% | 1019 hPa | 0 mm | - | 745 W/m² | - |
| 1777739870 | 11.67° C | 45% | 1018.9 hPa | 0 mm | - | 732 W/m² | - |
| 1777739567 | 11.67° C | 52% | 1019.1 hPa | 0 mm | - | 681 W/m² | - |
| 1777739264 | 12.22° C | 49% | 1019 hPa | 0 mm | - | 117 W/m² | - |
| 1777738961 | 11.11° C | 44% | 1019.2 hPa | 0 mm | - | 779 W/m² | - |
| 1777738658 | 11.67° C | 46% | 1019.2 hPa | 0 mm | - | 750 W/m² | - |
| 1777738353 | 10.56° C | 49% | 1019.3 hPa | 0 mm | - | 288 W/m² | - |
| 1777738052 | 10° C | 50% | 1019.4 hPa | 0 mm | - | 720 W/m² | - |
| 1777737751 | 10.56° C | 53% | 1019.3 hPa | 0 mm | - | 271 W/m² | - |
| 1777737449 | 11.67° C | 47% | 1019.4 hPa | 0 mm | - | 781 W/m² | - |
| 1777737146 | 11.11° C | 49% | 1019.5 hPa | 0 mm | - | 796 W/m² | - |
| 1777736841 | 10.56° C | 51% | 1019.6 hPa | 0 mm | - | 811 W/m² | - |
| 1777736224 | 10° C | 52% | 1019.4 hPa | 0 mm | - | 787 W/m² | - |
| 1777735920 | 10° C | 54% | 1019.5 hPa | 0 mm | - | 790 W/m² | - |
| 1777735618 | 10.56° C | 51% | 1019.5 hPa | 0 mm | - | 819 W/m² | - |
| 1777735315 | 10° C | 51% | 1019.3 hPa | 0 mm | - | 739 W/m² | - |
| 1777735012 | 9.44° C | 50% | 1019.5 hPa | 0 mm | - | 704 W/m² | - |
| 1777734710 | 10° C | 52% | 1019.4 hPa | 0 mm | - | 606 W/m² | - |
| 1777734407 | 10.56° C | 52% | 1019.4 hPa | 0 mm | - | 668 W/m² | - |
| 1777734103 | 9.44° C | 51% | 1019.3 hPa | 0 mm | - | 633 W/m² | - |
| 1777733799 | 9.44° C | 56% | 1019.4 hPa | 0 mm | - | 642 W/m² | - |
| 1777733496 | 10° C | 51% | 1019.6 hPa | 0 mm | - | 653 W/m² | - |
| 1777733192 | 9.44° C | 51% | 1019.5 hPa | 0 mm | - | 629 W/m² | - |
* Rain latest hour (hover to see other rain measurements)
** Current wind speed in m/s (hover to see current wind gust speed)